Regional Weather Roundup
Issued by NWS Upton, NY

Current Version | Previous Version | Graphics & Text | Print | Product List | Glossary Off
Versions: 1 2 3 4 5 6 7 8 9 10 11 12 13 14 15 16 17 18 19 20 21 22 23 24 25 26 27 28 29 30 31 32 33 34 35 36 37 38 39 40 41 42 43 44 45 46 47 48 49
000 ASUS41 KOKX 310304 RWROKX REGIONAL WEATHER ROUNDUP NATIONAL WEATHER SERVICE NEW YORK NY 1100 PM EDT THU JUL 30 2015 NOTE: "FAIR" INDICATES FEW OR NO CLOUDS BELOW 12,000 FEET WITH NO SIGNIFICANT WEATHER AND/OR OBSTRUCTIONS TO VISIBILITY. NYZ071-072-176-178-NJZ106-104-310400- NEW YORK CITY METRO AREA CITY SKY/WX TMP DP RH WIND PRES REMARKS CENTRAL PARK PTCLDY 77 72 84 W5 29.87S LAGUARDIA APRT CLOUDY 79 72 79 SW6 29.83S KENNEDY INTL MOCLDY 77 73 87 SW8 29.84F NEWARK/LIBERTY MOCLDY 77 72 84 SW7 29.84S BRNX BOT. GARD N/A 77 72 83 SW6 29.85S TETERBORO MOCLDY 77 72 84 S3 29.83R $$ NYZ177-179-078>081-310400- LONG ISLAND NEW YORK CITY SKY/WX TMP DP RH WIND PRES REMARKS FARMINGDALE PTCLDY 76 73 91 SW5 29.84S ISLIP CLOUDY 75 73 93 SW8 29.82S SHIRLEY MOCLDY 76 73 91 SW7 29.84R WESTHAMPTON CLOUDY 75 74 96 SW8G18 29.85R MONTAUK POINT N/A 75 72 90 SW8 29.84S $$ NYZ052-065-067-310400- HUDSON VALLEY CITY SKY/WX TMP DP RH WIND PRES REMARKS WHITE PLAINS PTCLDY 75 73 93 W3 29.84S FOG NEWBURGH PTCLDY 73 72 94 W6 29.86 MONTGOMERY FOG 71 70 96 CALM 29.85S VSB 1/4 POUGHKEEPSIE PTCLDY 74 71 91 CALM 29.82S FOG ALBANY PTCLDY 70 61 73 SW5 29.83S $$ NJZ001-105-106-008-010-013-015-019>022-104-310400- NEW JERSEY CITY SKY/WX TMP DP RH WIND PRES REMARKS NEWARK/LIBERTY MOCLDY 77 72 84 SW7 29.84S TETERBORO MOCLDY 77 72 84 S3 29.83R CALDWELL PTCLDY 76 72 87 S3 29.84S MORRISTOWN PTCLDY 73 70 88 CALM 29.85S FOG SOMERVILLE FOG 72 70 93 CALM 29.84R VSB 1/4 SUSSEX CLOUDY 73 71 93 CALM 29.86S FOG ANDOVER N/A 72 72 100 CALM 29.87S TRENTON PTCLDY 75 73 93 SW6 29.85S MILLVILLE CLOUDY 75 72 90 W5 29.88F ATLANTIC CITY CLOUDY 77 73 87 SW6 29.87F WRIGHTSTOWN MOCLDY 74 74 100 SW5 29.84S TOMS RIVER N/A 75 73 94 SW6 29.86F BELMAR MOCLDY 75 70 83 W6 29.85F $$ PAZ047>061-062-071-310400- EASTERN PENNSYLVANIA CITY SKY/WX TMP DP RH WIND PRES REMARKS PHILADELPHIA MOCLDY 78 74 87 SW9 29.87S ALLENTOWN CLEAR 72 68 87 W3 29.87R SCRANTON PTCLDY 71 63 75 E5 29.90R $$ CTZ002-004>006-009-010-012-RIZ004-006-007-MAZ004-011-015-310400- SOUTHERN NEW ENGLAND IN CT CITY SKY/WX TMP DP RH WIND PRES REMARKS BRADLEY INTL PTCLDY 73 71 93 S6 29.81F HARTFORD CLOUDY 75 73 93 CALM 29.82S DANBURY CLOUDY 75 72 90 CALM 29.85F FOG WTRBRY/OXFORD CLOUDY 75 70 83 CALM 29.87S BRIDGEPORT PTCLDY 76 73 91 W6 29.82F MERIDEN CLOUDY 75 72 90 S3 29.82F NEW HAVEN CLOUDY 75 73 93 SW3 29.82F CHESTER CLOUDY 73 73 100 W6 29.84F FOG GROTON CLOUDY 75 72 90 CALM 29.81F WILLIMANTIC CLOUDY 75 72 90 CALM 29.83S IN RI CITY SKY/WX TMP DP RH WIND PRES REMARKS PROVIDENCE CLOUDY 75 72 90 SW5 29.82F BLOCK ISLAND N/A 73 73 100 SW13 29.84S WESTERLY CLOUDY 74 72 93 VRB3 29.82F IN MA CITY SKY/WX TMP DP RH WIND PRES REMARKS BOSTON MOCLDY 74 72 93 SW13 29.79S WORCESTER MOCLDY 71 69 93 W12 29.85S WESTFIELD FOG 71 70 96 CALM 29.82S VSB 3/4 PROVINCETOWN CLOUDY 72 64 78 SW12 29.82S NANTUCKET CLOUDY 71 69 93 S7 29.85F $$ ANZ330-335-338-340-345-350-353-355-310400- COASTAL MARINE OBSERVATIONS STATION/POSITION TIME SKY/WX TEMP WIND PRES VSBY WAVE AIR SEA DIR/SP/G HT/PER (UTC) (F) (DEG/KT/KT) (MB) (MI) (FT/S) NY HARB ENTRANCE 0150 76 77 220/ 12/ 14 1010.0 3/ 6 4S FIRE IS NOT AVBL 20S FIRE ISLAND 0150 76 75 220/ 8/ 12 1010.3 4/ 6 GREAT SOUTH BAY 0230 77 81 260/ 16/ 19 N/A 23SW MTP 0250 76 74 230/ 16/ 19 1009.6 4/ 6 HUDSON CANYON NOT AVBL KINGS POINT 0200 75 70 190/ 5/ 7 1009.6 EXECUTION ROCKS 0200 74 220/ 4/ 6 N/A CENTRAL LI SOUND NOT AVBL EASTERN LI SOUND 0200 71 69 250/ 4/ 6 N/A ROBBINS REEF 0200 76 220/ 3/ 5 1009.4 $$ >>>>>>>>>>>>>>>>>>>>>>>>>>>> KEY <<<<<<<<<<<<<<<<<<<<<<<<<<< > < > SKY/WX - SKY CONDITION/PRESENT WEATHER < > TMP - TEMPERATURE IN FAHRENHEIT < > DP - DEWPOINT IN FAHRENHEIT < > RH - RELATIVE HUMIDITY IN PERCENT < > WIND - DIRECTION AND SPEED IN MPH < > PRES - MEAN SEA LEVEL PRESSURE IN INCHES OF HG < > WCI - WIND CHILL INDEX < > VSB - VISIBILITY IN MILES < > HX - HEAT INDEX < > TC - TEMPERATURE IN CELSIUS < > VRB - VARIABLE WIND DIRECTION < > < >>>>>>>>>>>>>>>>>>>>>>>>>>>> KEY <<<<<<<<<<<<<<<<<<<<<<<<<<<

USA.gov is the U.S. government's official web portal to all federal, state and local government web resources and services.